Sign-in with your pilot id or email, or register

ICAO: ELLX Name / Country: Luxembourg / Luxembourg / Luxembourg
Latitude: 49.6266 Longitude: 6.21152
Total Arrivals:
Strict Standards: Non-static method AirportData::getarrflights() should not be called statically, assuming $this from incompatible context in /var/www/customers/vh-7192/web/home/phpvms/core/templates/airport_info.tpl on line 18
1
Total Departures:
Strict Standards: Non-static method AirportData::getdeptflights() should not be called statically, assuming $this from incompatible context in /var/www/customers/vh-7192/web/home/phpvms/core/templates/airport_info.tpl on line 21
0
Latest Arrival: MTA5PM (LHBP-ELLX) Tibor Berces Latest Departure: (-)
Metar: ELLX 202220Z 19016KT CAVOK 09/03 Q0997 TEMPO 20015G25KT
More info

Charts for ELLX


NOTAM


Warning: file_get_contents(http://api.vateud.net/notams/ELLX.json): failed to open stream: HTTP request failed! HTTP/1.1 404 Not Found in /var/www/customers/vh-7192/web/home/phpvms/core/common/NOTAMSData.class.php on line 18

Warning: Invalid argument supplied for foreach() in /var/www/customers/vh-7192/web/home/phpvms/core/common/NOTAMSData.class.php on line 22

Luxembourg / Luxembourg